Weather History for Kabul, Afghanistan

Change the Weather History Date:

Thursday, December 13, 2012

  Actual Average Record
Temperature  
Mean Temperature 35 °F -  
Max Temperature 37 °F 44 °F - ()
Min Temperature 33 °F 22 °F - ()
Degree Days  
Heating Degree Days 30    
Moisture  
Dew Point 34 °F    
Average Humidity 96    
Maximum Humidity 100    
Minimum Humidity 87    
Precipitation  
Precipitation 0.00 in 0.04 in - ()
Sea Level Pressure  
Sea Level Pressure 29.97 in    
Wind  
Wind Speed 5 mph ()    
Max Wind Speed 12 mph    
Max Gust Speed -    
Visibility 2.7 miles    
Events Rain , Snow    
T = Trace of Precipitation, MM = Missing Value Source: Averaged Metar Reports

Daily Weather History Graph

Daily Weather History Graph

Search for Another Location

Airport:

Trip Planner

Search our weather history database for the weather conditions in past years. The results will help you decide how hot, cold, wet, or windy it might be!

Date:

Astronomy

Dec. 13, 2012 Rise Set
Actual Time 6:51 AM AFT 4:43 PM AFT
Civil Twilight 6:23 AM AFT 5:11 PM AFT
Nautical Twilight 5:51 AM AFT 5:42 PM AFT
Astronomical Twilight 5:21 AM AFT 6:13 PM AFT
Moon 6:32 AM AFT (12/13) 4:55 PM AFT (12/13)
Length of Visible Light 10h 48m
Length of Day
9h 52m
Waning Crescent, 0% of the Moon is Illuminated
Dec 13
Waning Crescent
Dec 13
New
Dec 20
First Quarter
Dec 28
Full
Jan 5
Last Quarter

Hourly Weather History & Observations

Time (AFT) Temp. Windchill Dew Point Humidity Pressure Visibility Wind Dir Wind Speed Gust Speed Precip Events Conditions
12:20 AM 37.4 °F 33.8 °F 33.8 °F 87% 30.01 in 5.0 mi WNW 4.6 mph - N/A Rain Light Rain
1:20 AM 37.4 °F 33.8 °F 33.8 °F 87% 30.01 in 5.0 mi North 4.6 mph - N/A   Mostly Cloudy
2:20 AM 35.6 °F 31.7 °F 33.8 °F 93% 29.98 in 4.3 mi NNE 4.6 mph - N/A Rain Rain
3:20 AM 35.6 °F 30.7 °F 33.8 °F 93% 29.98 in 5.0 mi NNE 5.8 mph - N/A Rain Light Rain
4:20 AM 35.6 °F 29.9 °F 33.8 °F 93% 29.95 in 4.3 mi NNE 6.9 mph - N/A Rain Light Rain
5:20 AM 35.6 °F 29.2 °F 33.8 °F 93% 29.95 in 3.7 mi NNE 8.1 mph - N/A Rain Rain
6:05 AM 33.8 °F 28.6 °F 33.8 °F 100% 29.95 in 2.5 mi SE 5.8 mph - N/A Rain , Snow Rain
6:20 AM 35.6 °F 31.7 °F 33.8 °F 93% 29.95 in 1.9 mi SE 4.6 mph - N/A Rain , Snow Rain
7:20 AM 33.8 °F 30.8 °F 33.8 °F 100% 29.95 in 1.2 mi SW 3.5 mph - N/A Rain , Snow Light Rain
8:20 AM 33.8 °F 30.8 °F 33.8 °F 100% 29.95 in 1.2 mi SW 3.5 mph - N/A Rain , Snow Light Snow
9:20 AM 33.8 °F 30.8 °F 33.8 °F 100% 29.98 in 1.2 mi SW 3.5 mph - N/A Rain , Snow Light Snow
10:20 AM 35.6 °F 29.2 °F 33.8 °F 93% 29.98 in 1.6 mi North 8.1 mph - N/A Rain , Snow Light Rain
10:40 AM 33.8 °F 29.6 °F 33.8 °F 100% 29.98 in 1.9 mi East 4.6 mph - N/A Rain Light Rain
11:20 AM 35.6 °F 29.9 °F 33.8 °F 93% 29.98 in 1.9 mi North 6.9 mph - N/A Rain , Snow Light Rain
11:40 AM 35.6 °F 30.7 °F 33.8 °F 93% 29.98 in 1.1 mi NNW 5.8 mph - N/A Rain Rain
12:20 PM 33.8 °F 28.6 °F 33.8 °F 100% 29.98 in 1.6 mi SSE 5.8 mph - N/A Rain , Snow Light Rain
1:05 PM 35.6 °F 29.9 °F 33.8 °F 93% 29.95 in 2.5 mi North 6.9 mph - N/A Rain Light Rain
1:20 PM 35.6 °F 31.7 °F 33.8 °F 93% 29.95 in 2.5 mi East 4.6 mph - N/A Rain Light Rain
2:20 PM 35.6 °F 29.9 °F 33.8 °F 93% 29.95 in 2.5 mi North 6.9 mph - N/A Rain Light Rain
2:45 PM 35.6 °F 28.0 °F 33.8 °F 93% 29.95 in 3.7 mi NNW 10.4 mph - N/A   Drizzle
3:20 PM 35.6 °F 29.2 °F 33.8 °F 93% 29.95 in 4.3 mi NW 8.1 mph - N/A   Light Drizzle
4:20 PM 35.6 °F 31.7 °F 33.8 °F 93% 29.98 in 3.7 mi Variable 4.6 mph - N/A   Light Drizzle
5:20 PM 33.8 °F 25.8 °F 33.8 °F 100% 29.95 in 3.1 mi NW 10.4 mph - N/A   Light Drizzle
5:40 PM 33.8 °F 27.0 °F 33.8 °F 100% 29.95 in 2.5 mi NNW 8.1 mph - N/A   Light Drizzle
5:55 PM 33.8 °F 27.7 °F 33.8 °F 100% 29.95 in 1.9 mi North 6.9 mph - N/A   Light Drizzle
6:20 PM 33.8 °F 26.4 °F 33.8 °F 100% 29.95 in 1.9 mi NNW 9.2 mph - N/A   Light Drizzle
7:20 PM 33.8 °F 28.6 °F 33.8 °F 100% 29.98 in 1.9 mi ENE 5.8 mph - N/A   Light Drizzle
8:20 PM 33.8 °F 25.8 °F 33.8 °F 100% 29.98 in 1.9 mi East 10.4 mph - N/A   Overcast
9:20 PM 33.8 °F 28.6 °F 33.8 °F 100% 29.98 in 1.9 mi East 5.8 mph - N/A   Overcast
10:20 PM 33.8 °F 25.3 °F 33.8 °F 100% 29.98 in 1.9 mi East 11.5 mph - N/A Rain Rain
11:20 PM 33.8 °F 26.4 °F 33.8 °F 100% 29.98 in 3.1 mi East 9.2 mph - N/A   Overcast